Volver al catálogo

STARLINK-37789

ActivoComunicacionesSSO
NORAD 69495·PAYLOAD·🇺🇸 United States

Lanzado Jun 11, 2026 desde Vandenberg Space Force Base

Loading…

Próximos Pases (próximas 24 horas)

TLE

ActualizadoSource: CelesTrak SupGP

Época: Sep 14, 2026, 23:06 UTC

1 69495C 26131T   26257.96298611  .00050314  00000+0  15620-2 0  2575
2 69495  97.2836 278.9520 0001461  88.8862 206.9796 15.33410542    13

Sigue STARLINK-37789 en tiempo real con AllMySat

Download on the App Store